Tracking 28096 objects as of 28-Sep-2023
HD Live streaming from Space Station
objects crossing your sky now

COSMOS 2091

Track COSMOS 2091 now!
10-day predictions
COSMOS 2091 is classified as:


NORAD ID: 20736
Int'l Code: 1990-070B
Perigee: 1,417.4 km
Apogee: 1,422.0 km
Inclination: 82.6 °
Period: 114.1 minutes
Semi major axis: 7790 km
RCS: 1.144 m2 (large)
Launch date: August 8, 1990
Source: Commonwealth of Independent States (former USSR) (CIS)
Launch site: PLESETSK MISSILE AND SPACE COMPLEX (PKMTR)
Your satellite tracking list
Your tracking list is empty




NASA's NSSDC Master Catalog

Two Line Element Set (TLE):
1 20736U 90070B   23270.47691656  .00000027  00000-0  91942-4 0  9990
2 20736  82.5749 242.5235 0002899 179.6820 305.0515 12.62518938526916
Source of the keplerian elements: AFSPC